Weather History for Cando, ND

Change the Weather History Date:

Wednesday, October 9, 2013

  Actual Average (KDVL) Record (KDVL)
Temperature  
Mean Temperature 54 °F -  
Max Temperature 68 °F 55 °F 82 °F (1955)
Min Temperature 39 °F 33 °F 20 °F (1964)
Degree Days  
Heating Degree Days 12    
Growing Degree Days 4 (Base 50)    
Moisture  
Dew Point 36 °F    
Average Humidity 63    
Maximum Humidity 87    
Minimum Humidity 26    
Precipitation  
Precipitation 0.00 in - - ()
Sea Level Pressure  
Sea Level Pressure 29.95 in    
Wind  
Wind Speed 6 mph (WNW)    
Max Wind Speed 12 mph    
Max Gust Speed -    
Visibility 10 miles    
Events      
Averages and records for this station are not official NWS values.
T = Trace of Precipitation, MM = Missing Value Source: NWS Daily Summary

Daily Weather History Graph

Daily Weather History Graph

Search for Another Location

Airport:

Trip Planner

Search our weather history database for the weather conditions in past years. The results will help you decide how hot, cold, wet, or windy it might be!

Date:

Astronomy

Oct. 09, 2013 Rise Set
Actual Time 7:48 AM CDT 6:58 PM CDT
Civil Twilight 7:16 AM CDT 7:30 PM CDT
Nautical Twilight 6:40 AM CDT 8:06 PM CDT
Astronomical Twilight 6:04 AM CDT 8:42 PM CDT
Moon 1:04 PM CDT (10/9) 10:15 PM CDT (10/9)
Length of Visible Light 12h 13m
Length of Day
11h 10m
Waxing Crescent, 25% of the Moon is Illuminated
Oct 9
Waxing Crescent
Oct 11
First Quarter
Oct 18
Full
Oct 26
Last Quarter
Nov 3
New

Hourly Weather History & Observations

Time (CDT) Temp. Windchill Dew Point Humidity Pressure Visibility Wind Dir Wind Speed Gust Speed Precip Events Conditions
12:15 AM 42.8 °F 38.6 °F 35.6 °F 76% 29.80 in 10.0 mi WNW 6.9 mph - N/A   Clear
12:35 AM 41.0 °F 36.4 °F 35.6 °F 81% 29.81 in 10.0 mi West 6.9 mph - N/A   Clear
12:55 AM 41.0 °F 35.2 °F 35.6 °F 81% 29.82 in 10.0 mi NW 9.2 mph - N/A   Clear
1:15 AM 44.6 °F 38.8 °F 35.6 °F 71% 29.82 in 9.0 mi NW 11.5 mph - N/A   Clear
1:35 AM 44.6 °F 39.2 °F 35.6 °F 71% 29.82 in 10.0 mi NW 10.4 mph - N/A   Clear
1:55 AM 44.6 °F 39.7 °F 35.6 °F 71% 29.84 in 9.0 mi NW 9.2 mph - N/A   Clear
2:15 AM 42.8 °F 36.6 °F 35.6 °F 76% 29.84 in 10.0 mi WNW 11.5 mph - N/A   Clear
2:35 AM 44.6 °F 39.2 °F 35.6 °F 71% 29.85 in 10.0 mi WNW 10.4 mph - N/A   Clear
2:55 AM 44.6 °F 40.2 °F 35.6 °F 71% 29.86 in 10.0 mi WNW 8.1 mph - N/A   Clear
3:15 AM 44.6 °F 40.7 °F 35.6 °F 71% 29.86 in 10.0 mi West 6.9 mph - N/A   Clear
3:35 AM 41.0 °F 35.8 °F 35.6 °F 81% 29.86 in 10.0 mi West 8.1 mph - N/A   Clear
3:55 AM 41.0 °F 37.1 °F 35.6 °F 81% 29.86 in 10.0 mi WNW 5.8 mph - N/A   Clear
4:15 AM 41.0 °F 38.0 °F 35.6 °F 81% 29.86 in 10.0 mi WNW 4.6 mph - N/A   Clear
4:35 AM 41.0 °F - 35.6 °F 81% 29.87 in 10.0 mi Calm Calm - N/A   Clear
4:55 AM 42.8 °F 40.1 °F 35.6 °F 76% 29.88 in 10.0 mi WNW 4.6 mph - N/A   Clear
5:15 AM 41.0 °F - 35.6 °F 81% 29.88 in 10.0 mi Calm Calm - N/A   Clear
5:35 AM 39.2 °F 35.0 °F 35.6 °F 87% 29.90 in 10.0 mi West 5.8 mph - N/A   Clear
5:55 AM 39.2 °F 35.9 °F 35.6 °F 87% 29.91 in 10.0 mi WSW 4.6 mph - N/A   Clear
6:15 AM 39.2 °F 35.9 °F 35.6 °F 87% 29.91 in 10.0 mi West 4.6 mph - N/A   Clear
6:35 AM 39.2 °F 35.9 °F 35.6 °F 87% 29.92 in 10.0 mi West 4.6 mph - N/A   Clear
6:55 AM 39.2 °F 35.0 °F 35.6 °F 87% 29.93 in 10.0 mi West 5.8 mph - N/A   Clear
7:15 AM 39.2 °F 35.0 °F 35.6 °F 87% 29.93 in 10.0 mi WNW 5.8 mph - N/A   Clear
7:35 AM 39.2 °F 35.0 °F 35.6 °F 87% 29.94 in 10.0 mi WNW 5.8 mph - N/A   Clear
7:55 AM 39.2 °F 35.0 °F 35.6 °F 87% 29.95 in 10.0 mi NW 5.8 mph - N/A   Clear
8:15 AM 39.2 °F 37.0 °F 35.6 °F 87% 29.95 in 9.0 mi NW 3.5 mph - N/A   Clear
8:35 AM 39.2 °F 35.9 °F 35.6 °F 87% 29.96 in 10.0 mi NNW 4.6 mph - N/A   Clear
8:55 AM 41.0 °F 38.0 °F 35.6 °F 81% 29.97 in 10.0 mi WNW 4.6 mph - N/A   Clear
9:15 AM 42.8 °F - 37.4 °F 81% 29.97 in 10.0 mi Calm Calm - N/A   Clear
9:35 AM 44.6 °F - 37.4 °F 76% 29.98 in 8.0 mi Calm Calm - N/A   Clear
9:55 AM 46.4 °F 44.3 °F 37.4 °F 71% 29.99 in 10.0 mi West 4.6 mph - N/A   Clear
10:15 AM 50.0 °F - 39.2 °F 66% 29.99 in 10.0 mi WNW 4.6 mph - N/A   Clear
10:35 AM 53.6 °F - 39.2 °F 58% 29.99 in 10.0 mi WNW 5.8 mph - N/A   Clear
10:55 AM 55.4 °F - 39.2 °F 54% 30.00 in 10.0 mi West 4.6 mph - N/A   Clear
11:15 AM 57.2 °F - 41.0 °F 55% 30.00 in 10.0 mi West 4.6 mph - N/A   Clear
11:35 AM 57.2 °F - 39.2 °F 51% 30.00 in 10.0 mi WNW 4.6 mph - N/A   Clear
11:55 AM 57.2 °F - 39.2 °F 51% 30.00 in 10.0 mi West 3.5 mph - N/A   Clear
12:15 PM 59.0 °F - 39.2 °F 48% 30.01 in 10.0 mi West 3.5 mph - N/A   Clear
12:35 PM 60.8 °F - 41.0 °F 48% 30.00 in 10.0 mi WSW 3.5 mph - N/A   Clear
12:55 PM 62.6 °F - 39.2 °F 42% 30.01 in 10.0 mi WNW 5.8 mph - N/A   Clear
1:15 PM 64.4 °F - 37.4 °F 37% 30.00 in 10.0 mi West 5.8 mph - N/A   Clear
1:35 PM 66.2 °F - 37.4 °F 35% 30.00 in 10.0 mi WNW 4.6 mph - N/A   Clear
1:55 PM 66.2 °F - 37.4 °F 35% 30.00 in 10.0 mi WNW 5.8 mph - N/A   Clear
2:15 PM 66.2 °F - 33.8 °F 30% 30.00 in 10.0 mi West 6.9 mph - N/A   Clear
2:35 PM 66.2 °F - 33.8 °F 30% 30.00 in 10.0 mi SW 3.5 mph - N/A   Clear
2:55 PM 68.0 °F - 32.0 °F 26% 30.00 in 10.0 mi NW 8.1 mph - N/A   Clear
3:15 PM 66.2 °F - 32.0 °F 28% 30.00 in 10.0 mi West 5.8 mph - N/A   Clear
3:55 PM 66.2 °F - 32.0 °F 28% 30.00 in 10.0 mi WNW 10.4 mph - N/A   Clear
4:15 PM 66.2 °F - 32.0 °F 28% 30.00 in 10.0 mi West 8.1 mph - N/A   Clear
4:35 PM 66.2 °F - 32.0 °F 28% 30.00 in 10.0 mi NW 5.8 mph - N/A   Clear
4:55 PM 66.2 °F - 32.0 °F 28% 30.00 in 10.0 mi NW 8.1 mph - N/A   Clear
5:15 PM 66.2 °F - 32.0 °F 28% 30.00 in 10.0 mi WNW 4.6 mph - N/A   Clear
5:35 PM 64.4 °F - 32.0 °F 30% 30.00 in 10.0 mi West 4.6 mph - N/A   Clear
5:55 PM 62.6 °F - 35.6 °F 37% 30.00 in 10.0 mi NW 4.6 mph - N/A   Clear
6:15 PM 62.6 °F - 35.6 °F 37% 29.99 in 10.0 mi West 5.8 mph - N/A   Clear
6:55 PM 55.4 °F - 37.4 °F 51% 30.00 in 10.0 mi West 6.9 mph - N/A   Clear
7:15 PM 53.6 °F - 37.4 °F 54% 30.00 in 10.0 mi West 8.1 mph - N/A   Clear
7:35 PM 50.0 °F - 35.6 °F 58% 30.00 in 10.0 mi West 6.9 mph - N/A   Clear
7:55 PM 50.0 °F - 35.6 °F 58% 30.00 in 10.0 mi WNW 3.5 mph - N/A   Clear
8:15 PM 48.2 °F - 35.6 °F 62% 30.00 in 10.0 mi NNW 3.5 mph - N/A   Clear
8:35 PM 48.2 °F - 37.4 °F 66% 30.01 in 10.0 mi Calm Calm - N/A   Clear
8:55 PM 46.4 °F 45.2 °F 37.4 °F 71% 30.00 in 10.0 mi NNW 3.5 mph - N/A   Clear
9:15 PM 46.4 °F 44.3 °F 37.4 °F 71% 30.01 in 10.0 mi NNW 4.6 mph - N/A   Clear
9:35 PM 44.6 °F 42.2 °F 37.4 °F 76% 30.01 in 10.0 mi North 4.6 mph - N/A   Clear
9:55 PM 44.6 °F 42.2 °F 39.2 °F 81% 30.01 in 10.0 mi NNE 4.6 mph - N/A   Clear
10:15 PM 44.6 °F 40.7 °F 37.4 °F 76% 30.01 in 10.0 mi NNE 6.9 mph - N/A   Clear
10:35 PM 44.6 °F 40.7 °F 37.4 °F 76% 30.01 in 10.0 mi NNE 6.9 mph - N/A   Clear
10:55 PM 42.8 °F 38.6 °F 37.4 °F 81% 30.01 in 10.0 mi NNE 6.9 mph - N/A   Clear
11:15 PM 42.8 °F 38.0 °F 37.4 °F 81% 30.01 in 10.0 mi NNE 8.1 mph - N/A   Clear
11:55 PM 42.8 °F 37.5 °F 37.4 °F 81% 30.00 in 10.0 mi NNE 9.2 mph - N/A   Clear